User: anonymous   Login
Location: *
(32.8140°S, 174.6161°E)
Time: 12:23:36
(UTC+00:00)
Language:

CZ-2C R/B - Orbit

View from above orbital plane
View from above orbital plane
View from above satellite
View from above satellite

Ground track
Ground track

The orbit data is extracted from the following two-line orbital elements,

1 36089U 09061B   20056.74156102 +.00000001 +00000-0 +11964-4 0  9997
2 36089 098.1409 034.0718 0080741 258.8814 151.6119 14.49816866544121
Epoch (UTC): 25 February 2020 17:47:50
Eccentricity: 0.0080741
inclination: 98.1409°
perigee height: 669 km
apogee height: 783 km
right ascension of ascending node: 34.0718°
argument of perigee: 258.8814°
revolutions per day: 14.49816866
mean anomaly at epoch: 151.6119°
orbit number at epoch: 54412

The dashed part of the orbit path shows where the satellite is in the earth's shadow,  

DLR